Location: Peebles
(55.6412°N, 3.1714°W)
Time: 04:25:25
(UTC+00:00)

Envisat - Visible Passes

Search period start: 22 March 2023 00:00
Search period end: 01 April 2023 01:00
Orbit: 763 x 765 km, 98.2° (Epoch: 21 March)

Date Brightness Start Highest point End Pass type
(mag) Time Alt. Az. Time Alt. Az. Time Alt. Az.
22 Mar 5.4 03:04:41 10° NE 03:08:20 20° E 03:11:59 10° SE visible
22 Mar 3.0 04:42:53 10° NNE 04:48:00 83° WNW 04:53:05 10° SSW visible
23 Mar 6.0 02:30:13 10° ENE 02:30:38 10° E 02:31:04 10° E visible
23 Mar 3.7 04:05:50 10° NNE 04:10:50 54° E 04:15:48 10° S visible
24 Mar 4.8 03:29:02 10° NNE 03:33:29 29° E 03:37:53 10° SSE visible
24 Mar 3.1 05:07:48 10° N 05:12:48 56° WNW 05:17:45 10° SW visible
25 Mar 5.6 02:52:48 10° NE 02:55:55 16° E 02:59:02 10° ESE visible
25 Mar 3.1 04:30:37 10° NNE 04:35:45 82° ESE 04:40:50 10° SSW visible
26 Mar 4.1 04:53:38 10° NNE 04:58:31 44° E 05:03:21 10° S visible
27 Mar 5.1 04:16:58 10° NE 04:21:06 24° E 04:25:11 10° SE visible
27 Mar 3.0 05:55:30 10° NNE 06:00:34 68° WNW 06:05:37 10° SSW visible
28 Mar 5.7 03:41:08 10° NE 03:43:28 13° E 03:45:48 10° ESE visible
28 Mar 3.4 05:18:23 10° NNE 05:23:28 67° ESE 05:28:31 10° S visible
29 Mar 4.4 04:41:28 10° NNE 04:46:10 36° E 04:50:50 10° SSE visible
30 Mar 5.4 04:04:58 10° NE 04:08:41 20° E 04:12:23 10° SE visible
30 Mar 3.0 05:43:12 10° NNE 05:48:19 82° WNW 05:53:24 10° SSW visible
31 Mar 5.9 03:30:08 10° ENE 03:30:58 10° E 03:31:49 10° E visible
31 Mar 3.7 05:06:09 10° NNE 05:11:09 55° E 05:16:08 10° S visible
